[[{"header":{"parameterUnit":"m.s-1","parameterCategory":1,"la1":30.2991,"la2":30.254,"lo1":-89.0895,"lo2":-89.0444,"dy":0.0017,"dx":0.0017,"nx":28,"ny":28,"refTime":"2025-12-22T09:00:00:Z","depth":0,"parameterNumber":2,"parameterNumberName":"U-component_of_WINDS"},"data":[0,0,0,0,0,0,0,0,0,0,0,0,0,0,0,0,0,0,0,0,0,0,0,0,0,0,0,0,0,0,0,0,0,0,0,0,0,0,0,0,0,0,0,0,0,0,0,0,0,0,0,0,0,0,0,0,0,0,-2.7843,-2.7843,0,-2.7798,-2.7798,-2.7797,-2.7695,-2.7693,-2.7691,-2.7689,-2.7646,-2.7647,-2.7648,0,0,0,0,0,0,0,0,0,0,0,0,0,-2.7844,-2.7845,-2.7843,-2.7843,-2.7842,-2.7798,-2.7798,-2.7797,-2.7696,-2.7693,-2.7691,-2.7688,-2.7646,-2.7647,-2.7648,0,0,0,0,0,0,0,0,0,0,0,0,0,-2.7826,-2.7845,-2.7843,-2.7786,-2.7781,-2.7798,-2.7798,-2.7797,-2.7696,-2.7693,-2.769,-2.7687,-2.7645,-2.7647,-2.7648,-2.7719,0,0,-2.7652,-2.7652,0,0,0,0,0,0,0,0,-2.7827,-2.7826,-2.7795,-2.779,-2.7784,-2.7749,-2.7782,-2.7771,-2.7697,-2.7728,-2.7689,-2.7685,-2.7683,-2.7681,-2.768,-2.7717,-2.7715,-2.7652,-2.7652,-2.7653,-2.7653,0,0,0,0,0,0,0,-2.7829,-2.7828,-2.7825,-2.7795,-2.7788,-2.7764,-2.7758,-2.7779,-2.7724,-2.7725,-2.7718,-2.7714,-2.7679,-2.7679,-2.7678,-2.7714,-2.7652,-2.7653,-2.7654,-2.7654,-2.7807,-2.781,0,0,0,0,0,0,-2.7838,-2.7829,-2.7827,-2.7824,-2.7798,-2.7766,-2.7759,-2.7764,-2.7724,-2.7714,-2.7717,-2.7709,-2.7678,-2.7677,-2.7676,-2.7756,-2.7653,-2.7654,-2.7655,-2.7803,-2.7807,-2.7811,0,0,0,0,0,0,-2.7838,-2.7839,-2.7829,-2.7825,-2.7821,-2.777,-2.7775,-2.7764,-2.7763,-2.7717,-2.7707,-2.7726,-2.7676,-2.7674,-2.7708,-2.7753,-2.7655,-2.7656,-2.78,-2.7805,-2.7809,-2.7917,0,0,0,0,0,0,-2.7839,-2.7839,-2.7865,-2.7826,-2.7822,-2.7862,-2.7778,-2.7766,-2.7765,-2.7755,-2.7723,-2.7714,-2.7673,-2.7707,-2.771,-2.7753,-2.7657,-2.7795,-2.7802,-2.7808,-2.7909,-2.7925,-2.7938,0,0,0,0,0,-2.7839,-2.7898,-2.7867,-2.7867,-2.7853,-2.7864,-2.7862,-2.7812,-2.7769,-2.7795,-2.7765,-2.7715,-2.7748,-2.7712,-2.7714,-2.7758,-2.7792,-2.78,-2.7807,-2.7902,-2.7921,-2.7938,0,0,0,0,0,0,-2.7944,-2.7891,-2.7857,-2.7904,-2.7889,-2.7847,-2.7878,-2.7834,-2.7832,-2.7823,-2.7763,-2.7756,-2.7799,-2.7782,-2.7742,-2.7824,-2.7762,-2.777,-2.7834,-2.7851,-2.7866,-2.7869,-2.7658,0,0,0,0,0,-2.7973,-2.7985,-2.7939,-2.7985,-2.798,-2.7931,-2.7933,-2.7896,-2.7879,-2.7873,-2.7845,-2.7831,-2.7838,-2.7844,-2.7847,-2.7906,-2.7898,-2.7937,-2.7952,-2.7964,-2.7972,-2.8002,-2.8019,-2.7836,-2.7836,-2.7835,0,0,-2.8032,-2.8005,-2.8017,-2.8006,-2.799,-2.8005,-2.7926,-2.7945,-2.7956,-2.7876,-2.7906,-2.7886,-2.7866,-2.7913,-2.7932,-2.79,-2.8021,-2.7974,-2.7984,-2.7985,-2.8011,-2.8029,-2.8044,-2.7841,-2.784,-2.7839,0,0,-2.8148,-2.8129,-2.8165,-2.8151,-2.8127,-2.8094,-2.8103,-2.8067,-2.805,-2.808,-2.802,-2.8032,-2.8045,-2.8034,-2.803,-2.8142,-2.8096,-2.8145,-2.8221,-2.8251,-2.8265,-2.8278,-2.8318,-2.8333,-2.8153,-2.8153,-2.8153,0,-2.8225,-2.8245,-2.819,-2.8213,-2.821,-2.8137,-2.8174,-2.8163,-2.8143,-2.8143,-2.8107,-2.8122,-2.8103,-2.8146,-2.8174,-2.8173,-2.8181,-2.8148,-2.8268,-2.828,-2.829,-2.8328,-2.8343,-2.8159,-2.8158,-2.8158,-2.8157,0,-2.834,-2.8355,-2.8388,-2.8369,-2.8369,-2.84,-2.835,-2.8358,-2.8321,-2.8292,-2.8323,-2.8299,-2.8296,-2.8304,-2.8268,-2.8342,-2.8323,-2.8278,-2.8215,-2.8315,-2.8349,-2.8363,-2.8168,-2.8166,-2.8164,-2.8162,0,0,-2.8521,-2.8471,-2.8484,-2.8475,-2.8444,-2.8454,-2.8482,-2.8478,-2.8486,-2.8475,-2.8496,-2.8509,-2.8468,-2.8463,-2.8426,-2.8452,-2.8543,-2.8404,-2.8403,-2.8431,-2.8622,-2.8656,-2.8673,-2.8512,-2.8515,-2.8517,-2.8624,0,-2.863,-2.8672,-2.8623,-2.8676,-2.8689,-2.862,-2.8644,-2.8628,-2.8602,-2.861,-2.8582,-2.8592,-2.8536,-2.8533,-2.8556,-2.8527,-2.858,-2.8518,-2.8532,-2.8533,-2.8539,-2.8691,-2.8726,-2.8829,-2.8637,-2.8639,-2.8641,0,-2.8761,-2.8755,-2.881,-2.8775,-2.8779,-2.8801,-2.8794,-2.8802,-2.8783,-2.8762,-2.8758,-2.8713,-2.8738,-2.8676,-2.871,-2.8669,-2.8672,-2.8659,-2.8662,-2.8661,-2.8593,-2.8694,-2.886,-2.8876,-2.8661,-2.866,-2.8658,0,-2.8888,-2.8893,-2.8926,-2.892,-2.8881,-2.8898,-2.8883,-2.8861,-2.8862,-2.8856,-2.8856,-2.8854,-2.8853,-2.8853,-2.8809,-2.8768,-2.8849,-2.8784,-2.8833,-2.8834,-2.8853,-2.8852,-2.9021,-2.8855,-2.8855,-2.8855,-2.8854,0,-2.9014,-2.905,-2.8982,-2.9003,-2.9041,-2.8985,-2.9025,-2.9003,-2.8984,-2.8999,-2.894,-2.8956,-2.8897,-2.8907,-2.8873,-2.8906,-2.8907,-2.8891,-2.8881,-2.8896,-2.8898,-2.8897,-2.8889,-2.8859,-2.8858,-2.8857,-2.8856,0,-2.9161,-2.9117,-2.9149,-2.9109,-2.91,-2.913,-2.9096,-2.9114,-2.9084,-2.9104,-2.9106,-2.9059,-2.9068,-2.9024,-2.9025,-2.9002,-2.9053,-2.9031,-2.9059,-2.9052,-2.9104,-2.91,-2.9278,-2.9299,-2.912,-2.9122,-2.9123,0,-2.9244,-2.927,-2.9233,-2.9238,-2.9226,-2.9236,-2.9236,-2.9183,-2.9186,-2.9166,-2.9187,-2.919,-2.919,-2.9208,-2.9175,-2.9175,-2.9153,-2.9216,-2.9153,-2.9167,-2.9154,-2.9153,-2.9156,-2.9229,-2.9231,-2.9233,-2.9235,0,-2.9397,-2.9374,-2.9376,-2.9371,-2.9373,-2.9367,-2.9357,-2.9366,-2.9308,-2.9315,-2.9322,-2.9323,-2.9323,-2.9328,-2.9322,-2.9307,-2.9262,-2.9255,-2.9266,-2.9281,-2.9296,-2.9289,-2.9095,-2.9251,-2.9249,-2.9248,-2.9247,-2.9246,-2.9514,-2.9534,-2.951,-2.9515,-2.9502,-2.9494,-2.9509,-2.948,-2.9485,-2.9481,-2.945,-2.9464,-2.9444,-2.9431,-2.9421,-2.9431,-2.9402,-2.9418,-2.9422,-2.9427,-2.9436,-2.9295,-2.943,-2.943,-2.9429,-2.9429,-2.9428,0,-2.9663,-2.9645,-2.965,-2.9637,-2.9641,-2.9597,-2.9584,-2.9591,-2.9603,-2.9589,-2.959,-2.9599,-2.9603,-2.957,-2.957,-2.9585,-2.9565,-2.9587,-2.9585,-2.9583,-2.9463,-2.9453,-2.9604,-2.9604,-2.9604,-2.9604,-2.9604,-2.9604,-2.9741,-2.9772,-2.9746,-2.9771,-2.9752,-2.9764,-2.976,-2.9753,-2.9741,-2.9754,-2.9756,-2.9735,-2.9713,-2.9711,-2.9713,-2.9703,-2.9706,-2.9736,-2.972,-2.9608,-2.9591,-2.9575,-2.9565,-2.9737,-2.9737,-2.9838,-2.9839,-2.984]},{"header":{"parameterUnit":"m.s-1","parameterCategory":1,"la1":30.2991,"la2":30.254,"lo1":-89.0895,"lo2":-89.0444,"dy":0.0017,"dx":0.0017,"nx":28,"ny":28,"refTime":"2025-12-22T09:00:00:Z","depth":0,"parameterNumber":3,"parameterNumberName":"V-component_of_WINDS"},"data":[0,0,0,0,0,0,0,0,0,0,0,0,0,0,0,0,0,0,0,0,0,0,0,0,0,0,0,0,0,0,0,0,0,0,0,0,0,0,0,0,0,0,0,0,0,0,0,0,0,0,0,0,0,0,0,0,0,0,-0.1709,-0.1708,0,-0.1643,-0.1642,-0.1641,-0.157,-0.1569,-0.1568,-0.1567,-0.1501,-0.15,-0.1499,0,0,0,0,0,0,0,0,0,0,0,0,0,-0.1773,-0.1773,-0.1709,-0.1708,-0.1707,-0.1643,-0.1642,-0.1641,-0.157,-0.1569,-0.1567,-0.1566,-0.1501,-0.15,-0.1499,0,0,0,0,0,0,0,0,0,0,0,0,0,-0.173,-0.1772,-0.1709,-0.1664,-0.1659,-0.1643,-0.1642,-0.1641,-0.157,-0.1568,-0.1567,-0.1566,-0.1501,-0.15,-0.1499,-0.1522,0,0,-0.1495,-0.1495,0,0,0,0,0,0,0,0,-0.1733,-0.1728,-0.1671,-0.1667,-0.1662,-0.1613,-0.164,-0.1601,-0.157,-0.1604,-0.1567,-0.1565,-0.1539,-0.1535,-0.1526,-0.1519,-0.1516,-0.1495,-0.1494,-0.1494,-0.1494,0,0,0,0,0,0,0,-0.1736,-0.173,-0.1683,-0.1671,-0.1665,-0.1647,-0.1639,-0.1633,-0.1581,-0.1601,-0.1596,-0.1589,-0.1536,-0.1527,-0.1524,-0.1516,-0.1495,-0.1494,-0.1493,-0.1493,-0.1522,-0.1523,0,0,0,0,0,0,-0.1746,-0.1733,-0.1685,-0.1681,-0.1694,-0.1647,-0.1638,-0.163,-0.1581,-0.1572,-0.159,-0.1585,-0.153,-0.1525,-0.1521,-0.1543,-0.1494,-0.1493,-0.1492,-0.152,-0.1522,-0.1524,0,0,0,0,0,0,-0.1747,-0.1742,-0.1687,-0.1705,-0.1697,-0.1647,-0.1639,-0.1629,-0.162,-0.1573,-0.1563,-0.159,-0.1529,-0.1523,-0.1522,-0.154,-0.1492,-0.1491,-0.1518,-0.1521,-0.1523,-0.1589,0,0,0,0,0,0,-0.1749,-0.1743,-0.1752,-0.1706,-0.1696,-0.1689,-0.164,-0.1629,-0.1618,-0.1612,-0.157,-0.1562,-0.1527,-0.1524,-0.1521,-0.1538,-0.149,-0.1517,-0.1519,-0.1522,-0.1585,-0.1593,-0.16,0,0,0,0,0,-0.1752,-0.1774,-0.1752,-0.1747,-0.1706,-0.169,-0.1685,-0.1644,-0.162,-0.1628,-0.1597,-0.1563,-0.1539,-0.1524,-0.152,-0.1537,-0.1515,-0.1519,-0.1522,-0.1582,-0.1592,-0.16,0,0,0,0,0,0,-0.1824,-0.1767,-0.1743,-0.1751,-0.1726,-0.1678,-0.1687,-0.1656,-0.1638,-0.1633,-0.1583,-0.1574,-0.1579,-0.1558,-0.1543,-0.1556,-0.1522,-0.1525,-0.1569,-0.1578,-0.1586,-0.159,-0.1489,0,0,0,0,0,-0.184,-0.1832,-0.1783,-0.1795,-0.1784,-0.1738,-0.173,-0.17,-0.1672,-0.1662,-0.1631,-0.1606,-0.1592,-0.1584,-0.1569,-0.1582,-0.1571,-0.1591,-0.1599,-0.1605,-0.1608,-0.1611,-0.1618,-0.1534,-0.1534,-0.1534,0,0,-0.1875,-0.1843,-0.1841,-0.1809,-0.1786,-0.1778,-0.173,-0.1724,-0.1717,-0.1661,-0.1657,-0.1634,-0.1602,-0.1607,-0.1608,-0.159,-0.1628,-0.1609,-0.1615,-0.1614,-0.1615,-0.1623,-0.163,-0.1537,-0.1536,-0.1536,0,0,-0.1934,-0.1909,-0.1915,-0.1893,-0.1858,-0.1827,-0.1829,-0.1786,-0.1767,-0.1762,-0.1719,-0.1711,-0.1689,-0.1667,-0.1654,-0.1702,-0.1669,-0.1698,-0.1738,-0.1742,-0.1748,-0.1754,-0.1769,-0.1775,-0.1701,-0.1701,-0.1702,0,-0.1981,-0.1967,-0.1922,-0.1918,-0.1905,-0.1852,-0.1857,-0.1837,-0.18,-0.1792,-0.1772,-0.1741,-0.1717,-0.1715,-0.1726,-0.1718,-0.1717,-0.1703,-0.1751,-0.1756,-0.176,-0.1774,-0.1781,-0.1705,-0.1705,-0.1704,-0.1704,0,-0.2026,-0.2018,-0.2026,-0.199,-0.1977,-0.1978,-0.1933,-0.1925,-0.1896,-0.1867,-0.1862,-0.183,-0.1806,-0.1804,-0.1776,-0.1798,-0.1787,-0.176,-0.1725,-0.1773,-0.1785,-0.179,-0.171,-0.1709,-0.1708,-0.1707,0,0,-0.2129,-0.2066,-0.207,-0.2052,-0.2009,-0.2002,-0.1999,-0.1975,-0.1969,-0.1945,-0.1941,-0.1922,-0.1896,-0.188,-0.1849,-0.1853,-0.189,-0.1824,-0.1823,-0.1836,-0.1909,-0.1929,-0.1936,-0.1868,-0.1869,-0.187,-0.1911,0,-0.2179,-0.2171,-0.2129,-0.2134,-0.2124,-0.2072,-0.207,-0.2043,-0.2016,-0.2003,-0.1973,-0.196,-0.1927,-0.1917,-0.1917,-0.1885,-0.1904,-0.1882,-0.1863,-0.1863,-0.1872,-0.1943,-0.1964,-0.2005,-0.1916,-0.1917,-0.1917,0,-0.2237,-0.2214,-0.2217,-0.2172,-0.2166,-0.2165,-0.2138,-0.2127,-0.2095,-0.2075,-0.2056,-0.2021,-0.2015,-0.1982,-0.1972,-0.1958,-0.1948,-0.1931,-0.1932,-0.1928,-0.1893,-0.1939,-0.2017,-0.2023,-0.1925,-0.1924,-0.1923,0,-0.2309,-0.228,-0.2277,-0.2263,-0.2211,-0.2211,-0.219,-0.2156,-0.2143,-0.212,-0.2111,-0.2088,-0.2075,-0.2058,-0.2017,-0.1997,-0.2011,-0.1976,-0.1992,-0.1994,-0.1997,-0.1997,-0.2073,-0.1993,-0.1993,-0.1993,-0.1993,0,-0.2368,-0.2372,-0.2308,-0.2307,-0.2308,-0.226,-0.2263,-0.2237,-0.2207,-0.2198,-0.2153,-0.2146,-0.2093,-0.208,-0.2048,-0.2043,-0.2038,-0.2021,-0.2012,-0.2024,-0.2026,-0.2016,-0.2012,-0.1994,-0.1994,-0.1994,-0.1993,0,-0.2449,-0.2407,-0.24,-0.2351,-0.2339,-0.2342,-0.2299,-0.2295,-0.2264,-0.2254,-0.2249,-0.2201,-0.2182,-0.214,-0.2111,-0.2089,-0.2092,-0.2077,-0.2103,-0.2097,-0.2116,-0.2114,-0.2187,-0.2193,-0.2111,-0.2112,-0.2112,0,-0.249,-0.2491,-0.2441,-0.2431,-0.2411,-0.2397,-0.2383,-0.2336,-0.2323,-0.2285,-0.2286,-0.2264,-0.2244,-0.2217,-0.2179,-0.2156,-0.2139,-0.2166,-0.2135,-0.2147,-0.2137,-0.2137,-0.2136,-0.2173,-0.2174,-0.2175,-0.2175,0,-0.2565,-0.2543,-0.2525,-0.2499,-0.2483,-0.2461,-0.2436,-0.2431,-0.2377,-0.2365,-0.2345,-0.2329,-0.2299,-0.2277,-0.2248,-0.2225,-0.2191,-0.2185,-0.2188,-0.22,-0.2214,-0.2204,-0.212,-0.2184,-0.2183,-0.2182,-0.2182,-0.2182,-0.2625,-0.2623,-0.2587,-0.2567,-0.2543,-0.252,-0.2513,-0.248,-0.2463,-0.2433,-0.2406,-0.2389,-0.2355,-0.2312,-0.2291,-0.2276,-0.2259,-0.2263,-0.2264,-0.2265,-0.227,-0.2217,-0.2271,-0.227,-0.227,-0.227,-0.227,0,-0.2696,-0.267,-0.2653,-0.2618,-0.2603,-0.2571,-0.2541,-0.253,-0.2515,-0.2486,-0.2466,-0.2443,-0.2421,-0.238,-0.2355,-0.235,-0.2334,-0.2345,-0.2344,-0.2339,-0.2287,-0.2287,-0.2359,-0.2359,-0.2359,-0.2359,-0.2359,-0.2359,-0.2731,-0.2725,-0.2699,-0.268,-0.2653,-0.2635,-0.262,-0.2598,-0.2575,-0.255,-0.2531,-0.2504,-0.247,-0.2441,-0.2419,-0.2408,-0.24,-0.2416,-0.2399,-0.2352,-0.2343,-0.2335,-0.2335,-0.2415,-0.2415,-0.2452,-0.2452,-0.2453]}]]